[[{"header":{"parameterUnit":"m.s-1","parameterCategory":1,"la1":30.2991,"la2":30.254,"lo1":-89.0895,"lo2":-89.0444,"dy":0.0017,"dx":0.0017,"nx":28,"ny":28,"refTime":"2025-07-12T03:00:00:Z","depth":0,"parameterNumber":2,"parameterNumberName":"U-component_of_WINDS"},"data":[0,0,0,0,0,0,0,0,0,0,0,0,0,0,0,0,0,0,0,0,0,0,0,0,0,0,0,0,0,0,0,0,0,0,0,0,0,0,0,0,0,0,0,0,0,0,0,0,0,0,0,0,0,0,0,0,0,0,1.3121,1.3122,0,1.3279,1.3281,1.3283,1.3343,1.3343,1.3342,1.3342,1.3496,1.35,1.3504,0,0,0,0,0,0,0,0,0,0,0,0,0,1.2861,1.2865,1.312,1.3122,1.3124,1.3279,1.3281,1.3283,1.3343,1.3343,1.3342,1.3342,1.3494,1.3499,1.3505,0,0,0,0,0,0,0,0,0,0,0,0,0,1.2992,1.2867,1.312,1.3173,1.3179,1.3279,1.3281,1.3284,1.3343,1.3343,1.3342,1.3341,1.3492,1.3499,1.3506,1.3561,0,0,1.3526,1.3529,0,0,0,0,0,0,0,0,1.2984,1.3001,1.3163,1.317,1.3177,1.3291,1.3246,1.3376,1.3343,1.3281,1.3342,1.3341,1.3427,1.3439,1.347,1.3568,1.3575,1.3527,1.3531,1.3534,1.3536,0,0,0,0,0,0,0,1.2975,1.2995,1.3183,1.3166,1.3174,1.3186,1.3204,1.3271,1.3355,1.3286,1.3291,1.3309,1.3431,1.3464,1.3474,1.3577,1.3527,1.3533,1.3537,1.3539,1.3728,1.3729,0,0,0,0,0,0,1.2958,1.2987,1.3178,1.3188,1.3077,1.3191,1.3212,1.3255,1.3355,1.337,1.331,1.3312,1.3453,1.3466,1.348,1.3552,1.3534,1.354,1.3544,1.3727,1.3728,1.3729,0,0,0,0,0,0,1.2953,1.2975,1.3171,1.3089,1.3115,1.3197,1.3245,1.3258,1.3291,1.3373,1.3388,1.3328,1.3453,1.3471,1.3541,1.3558,1.3543,1.3549,1.3726,1.3727,1.3728,1.3695,0,0,0,0,0,0,1.2945,1.2972,1.2996,1.3089,1.3119,1.3232,1.3246,1.3262,1.3304,1.3308,1.3394,1.3408,1.3453,1.3531,1.3548,1.3567,1.3555,1.3725,1.3726,1.3728,1.3695,1.3696,1.3696,0,0,0,0,0,1.2935,1.2978,1.2997,1.302,1.3151,1.3233,1.325,1.3304,1.3305,1.3328,1.3381,1.3405,1.3553,1.3537,1.3557,1.3579,1.3724,1.3726,1.3728,1.3695,1.3696,1.3696,0,0,0,0,0,0,1.2882,1.2991,1.3013,1.3088,1.3151,1.3243,1.3274,1.3302,1.3364,1.3364,1.3426,1.3445,1.351,1.3551,1.3531,1.3638,1.364,1.3646,1.3608,1.3609,1.361,1.3598,1.356,0,0,0,0,0,1.2879,1.294,1.3031,1.3088,1.3119,1.3191,1.3229,1.3265,1.3332,1.3358,1.3415,1.3477,1.3537,1.3575,1.3635,1.3702,1.3721,1.3726,1.3726,1.3726,1.373,1.3769,1.3772,1.3736,1.3736,1.3736,0,0,1.2873,1.2941,1.2975,1.3079,1.3132,1.3191,1.3213,1.3274,1.3318,1.3366,1.3437,1.3481,1.3554,1.3622,1.3655,1.3659,1.3745,1.3729,1.3728,1.3733,1.3771,1.3774,1.3777,1.3737,1.3737,1.3737,0,0,1.2893,1.2951,1.3006,1.3059,1.3141,1.3189,1.3201,1.329,1.3322,1.3395,1.3433,1.3484,1.3587,1.3637,1.3676,1.3716,1.3741,1.3734,1.3734,1.3771,1.3774,1.3776,1.3791,1.3795,1.3738,1.3738,1.3738,0,1.2875,1.2969,1.3029,1.309,1.3134,1.3184,1.3238,1.3286,1.3381,1.3409,1.3412,1.3544,1.3595,1.3677,1.3687,1.3717,1.3732,1.3724,1.3769,1.3772,1.3776,1.379,1.3795,1.3736,1.3737,1.3737,1.3737,0,1.2942,1.3006,1.304,1.3135,1.3183,1.3239,1.3306,1.3347,1.3379,1.3426,1.3499,1.3563,1.3638,1.3659,1.369,1.3745,1.3745,1.3757,1.3761,1.3777,1.3791,1.3797,1.3735,1.3735,1.3735,1.3736,0,0,1.2932,1.3062,1.3073,1.3117,1.3211,1.326,1.3318,1.3394,1.3428,1.3492,1.3541,1.3628,1.3641,1.3685,1.3721,1.3753,1.3781,1.3762,1.3765,1.3764,1.3845,1.3835,1.3841,1.3798,1.3799,1.38,1.3839,0,1.2964,1.3075,1.3131,1.3216,1.3276,1.3324,1.3375,1.3436,1.3482,1.3536,1.3585,1.3646,1.3658,1.3685,1.3719,1.3771,1.3798,1.3769,1.3843,1.3845,1.3824,1.3848,1.3838,1.3872,1.3845,1.3846,1.3847,0,1.3017,1.3085,1.3177,1.3266,1.3292,1.3337,1.3412,1.3464,1.3534,1.3565,1.3615,1.3651,1.3712,1.3712,1.3796,1.3774,1.3808,1.3837,1.384,1.3849,1.3847,1.3858,1.3884,1.3889,1.3857,1.3856,1.3855,0,1.3001,1.3114,1.3185,1.3221,1.3326,1.3356,1.34,1.347,1.3513,1.3577,1.3604,1.3673,1.371,1.3762,1.3815,1.381,1.3893,1.3897,1.3919,1.3917,1.3934,1.3932,1.3966,1.3955,1.3955,1.3955,1.3955,0,1.3032,1.3086,1.3179,1.3222,1.3284,1.3347,1.3405,1.3453,1.3515,1.3566,1.3611,1.3657,1.3725,1.3779,1.382,1.3883,1.3899,1.3924,1.3935,1.3921,1.3917,1.3943,1.3942,1.3957,1.3956,1.3956,1.3956,0,1.3024,1.3089,1.3169,1.3262,1.3287,1.3328,1.3407,1.3449,1.3497,1.3561,1.358,1.3654,1.372,1.3779,1.3865,1.3893,1.3957,1.397,1.3935,1.394,1.3959,1.3956,1.401,1.402,1.4002,1.4002,1.4002,0,1.3039,1.3083,1.3182,1.3222,1.3267,1.3329,1.3373,1.3436,1.348,1.3564,1.3596,1.3666,1.3726,1.3829,1.3888,1.3954,1.3969,1.3983,1.3979,1.3964,1.3969,1.3966,1.3971,1.3983,1.3983,1.3983,1.3983,0,1.3059,1.309,1.3154,1.323,1.3283,1.3345,1.3407,1.3436,1.351,1.3557,1.3627,1.3673,1.3764,1.3832,1.3905,1.3948,1.3977,1.3984,1.3992,1.3978,1.3956,1.3968,1.3934,1.3982,1.3982,1.3982,1.3982,1.3982,1.3064,1.3105,1.3183,1.3253,1.3307,1.3365,1.341,1.3465,1.3526,1.3607,1.3639,1.371,1.3779,1.3881,1.3924,1.3978,1.3983,1.3995,1.3999,1.4001,1.3998,1.3948,1.3992,1.3992,1.3992,1.3992,1.3992,0,1.3087,1.314,1.3204,1.3292,1.3347,1.3373,1.3444,1.3487,1.355,1.3614,1.3673,1.3753,1.382,1.3885,1.3955,1.3986,1.4001,1.4002,1.4,1.401,1.399,1.3976,1.3989,1.3989,1.3989,1.3989,1.3989,1.3989,1.3105,1.3177,1.3217,1.3315,1.3367,1.344,1.3478,1.3531,1.3582,1.3671,1.3728,1.3772,1.3836,1.3911,1.3973,1.399,1.4013,1.4011,1.4031,1.4011,1.4011,1.401,1.3998,1.4015,1.4015,1.4047,1.4047,1.4047]},{"header":{"parameterUnit":"m.s-1","parameterCategory":1,"la1":30.2991,"la2":30.254,"lo1":-89.0895,"lo2":-89.0444,"dy":0.0017,"dx":0.0017,"nx":28,"ny":28,"refTime":"2025-07-12T03:00:00:Z","depth":0,"parameterNumber":3,"parameterNumberName":"V-component_of_WINDS"},"data":[0,0,0,0,0,0,0,0,0,0,0,0,0,0,0,0,0,0,0,0,0,0,0,0,0,0,0,0,0,0,0,0,0,0,0,0,0,0,0,0,0,0,0,0,0,0,0,0,0,0,0,0,0,0,0,0,0,0,1.9572,1.9573,0,1.9682,1.9683,1.9684,1.9775,1.9776,1.9777,1.9778,1.9884,1.9885,1.9887,0,0,0,0,0,0,0,0,0,0,0,0,0,1.9437,1.9439,1.9572,1.9574,1.9575,1.9682,1.9683,1.9685,1.9775,1.9776,1.9777,1.9778,1.9883,1.9885,1.9887,0,0,0,0,0,0,0,0,0,0,0,0,0,1.9516,1.944,1.9572,1.9633,1.9639,1.9681,1.9683,1.9685,1.9774,1.9776,1.9777,1.9779,1.9882,1.9885,1.9888,1.9876,0,0,1.9897,1.9898,0,0,0,0,0,0,0,0,1.9512,1.9521,1.9622,1.9629,1.9636,1.9716,1.9675,1.9749,1.9774,1.9723,1.9778,1.9779,1.9826,1.9834,1.9851,1.9881,1.9886,1.9897,1.9899,1.99,1.9901,0,0,0,0,0,0,0,1.9506,1.9517,1.9615,1.9624,1.9632,1.9654,1.9666,1.9689,1.9765,1.9727,1.9734,1.9746,1.983,1.9848,1.9854,1.9887,1.9897,1.9899,1.9901,1.9902,1.9917,1.9916,0,0,0,0,0,0,1.9492,1.9512,1.9612,1.9619,1.9576,1.9655,1.9669,1.9689,1.9765,1.9778,1.9745,1.975,1.9842,1.9851,1.9858,1.9852,1.99,1.9902,1.9904,1.9918,1.9917,1.9915,0,0,0,0,0,0,1.9488,1.95,1.9608,1.9567,1.9583,1.9656,1.9677,1.969,1.9708,1.9778,1.9792,1.9749,1.9844,1.9854,1.9872,1.9857,1.9904,1.9906,1.992,1.9918,1.9916,1.9838,0,0,0,0,0,0,1.9484,1.9498,1.9495,1.9567,1.9584,1.962,1.9676,1.9691,1.9714,1.9722,1.9786,1.9798,1.9846,1.9868,1.9875,1.9862,1.9909,1.9921,1.9919,1.9916,1.9842,1.9833,1.9826,0,0,0,0,0,1.9479,1.9467,1.9494,1.9506,1.9582,1.9619,1.9629,1.9686,1.9712,1.9709,1.9755,1.9796,1.9857,1.9869,1.9878,1.9865,1.9923,1.992,1.9917,1.9846,1.9835,1.9826,0,0,0,0,0,0,1.9388,1.9477,1.9509,1.9519,1.9562,1.9635,1.9633,1.9673,1.9707,1.9713,1.978,1.9794,1.9805,1.9837,1.9848,1.9859,1.9896,1.9894,1.9838,1.9829,1.9821,1.9813,1.9911,0,0,0,0,0,1.937,1.9394,1.947,1.9472,1.9492,1.9558,1.9577,1.9618,1.9663,1.9681,1.9727,1.9768,1.9798,1.9815,1.9845,1.9847,1.9863,1.9843,1.9835,1.9828,1.9826,1.9832,1.9824,1.9905,1.9905,1.9905,0,0,1.9331,1.9383,1.9393,1.9455,1.9492,1.9515,1.9573,1.9593,1.9611,1.9683,1.9704,1.974,1.9791,1.9801,1.9808,1.9828,1.9808,1.9824,1.9818,1.982,1.9828,1.982,1.9814,1.9903,1.9904,1.9904,0,0,1.9273,1.9314,1.9322,1.9359,1.9417,1.9462,1.9464,1.9532,1.9559,1.9582,1.9638,1.9659,1.9706,1.9741,1.9765,1.9724,1.9764,1.9732,1.9689,1.9694,1.9688,1.9683,1.9669,1.9664,1.9729,1.9729,1.9729,0,1.9217,1.9256,1.932,1.9339,1.9365,1.9435,1.9443,1.9475,1.9538,1.9554,1.9576,1.964,1.9679,1.97,1.9691,1.9707,1.9711,1.9724,1.9684,1.9679,1.9675,1.9664,1.9658,1.9725,1.9726,1.9726,1.9726,0,1.9185,1.9211,1.921,1.9273,1.9299,1.9312,1.9378,1.9396,1.9435,1.9478,1.9501,1.9551,1.9594,1.9602,1.9638,1.9629,1.964,1.9672,1.9709,1.9662,1.9653,1.9648,1.9719,1.9721,1.9722,1.9723,0,0,1.9071,1.9172,1.9171,1.9201,1.9271,1.9292,1.9309,1.9354,1.9369,1.941,1.9427,1.9467,1.9499,1.9526,1.9568,1.9572,1.9539,1.9604,1.9607,1.9591,1.9533,1.9509,1.9503,1.9566,1.9565,1.9565,1.9529,0,1.9025,1.9061,1.9121,1.9138,1.9163,1.9231,1.9246,1.929,1.9331,1.9358,1.9403,1.9432,1.947,1.9487,1.9495,1.9541,1.9528,1.9544,1.9581,1.9582,1.9567,1.9497,1.9472,1.9436,1.9526,1.9525,1.9525,0,1.8975,1.9017,1.9037,1.9108,1.9121,1.9134,1.9181,1.9206,1.9258,1.9288,1.932,1.9367,1.9388,1.9423,1.9454,1.9463,1.9482,1.9508,1.9508,1.9513,1.955,1.9502,1.9426,1.942,1.9519,1.9519,1.952,0,1.8892,1.8952,1.8973,1.8997,1.908,1.9088,1.9123,1.9176,1.9201,1.9241,1.9258,1.9299,1.9322,1.9353,1.941,1.943,1.9435,1.9474,1.946,1.9459,1.9458,1.9458,1.9384,1.9469,1.9469,1.9469,1.9469,0,1.8834,1.8844,1.8938,1.895,1.8964,1.9033,1.9044,1.9084,1.9132,1.9154,1.9214,1.9232,1.9306,1.9333,1.9378,1.9398,1.9407,1.9431,1.9443,1.9427,1.9424,1.944,1.9444,1.9468,1.9468,1.9468,1.9468,0,1.8743,1.8806,1.8834,1.8911,1.8931,1.8938,1.9004,1.9019,1.9065,1.9092,1.9102,1.9173,1.9208,1.9269,1.932,1.935,1.9362,1.9381,1.9345,1.9353,1.9337,1.9338,1.9272,1.9267,1.9353,1.9352,1.9351,0,1.8702,1.8713,1.8793,1.8813,1.8846,1.8877,1.8904,1.8972,1.8996,1.9058,1.9066,1.9107,1.9143,1.9197,1.9252,1.9293,1.9314,1.9288,1.932,1.9304,1.9316,1.9315,1.9317,1.9281,1.9279,1.9278,1.9278,0,1.8625,1.8656,1.8693,1.8741,1.8771,1.8811,1.8855,1.8867,1.8945,1.8969,1.9008,1.9037,1.9092,1.9132,1.9182,1.9216,1.926,1.9267,1.9267,1.925,1.923,1.9242,1.9326,1.9268,1.9269,1.927,1.9271,1.9271,1.8559,1.8572,1.8632,1.8671,1.8711,1.8751,1.877,1.882,1.8854,1.8907,1.8944,1.8981,1.9035,1.9106,1.9139,1.9168,1.9187,1.9186,1.9186,1.9184,1.9179,1.9225,1.9177,1.9177,1.9177,1.9178,1.9178,0,1.8485,1.8528,1.8564,1.8624,1.8656,1.8697,1.8748,1.8771,1.8803,1.8851,1.8887,1.8932,1.8972,1.9032,1.9077,1.9089,1.911,1.9098,1.9098,1.9106,1.9158,1.9155,1.908,1.908,1.908,1.908,1.908,1.908,1.8451,1.8477,1.8516,1.8562,1.8604,1.8643,1.8669,1.8706,1.8745,1.8794,1.8829,1.8869,1.8922,1.8972,1.901,1.9027,1.9041,1.9023,1.9046,1.9093,1.9102,1.911,1.9108,1.9025,1.9025,1.8992,1.8992,1.8991]}]]